TimePST,TemperatureF,Dew PointF,Humidity,Sea Level PressureIn,VisibilityMPH,Wind Direction,Wind SpeedMPH,Gust SpeedMPH,PrecipitationIn,Events,Conditions,WindDirDegrees,DateUTC
12:56 AM,39.9,37.0,89,29.78,7.0,SE,12.7,-,0.02,Rain,Light Rain,130,2012-12-14 08:56:00
1:56 AM,39.9,37.0,89,29.79,6.0,SE,8.1,-,0.02,Rain,Light Rain,140,2012-12-14 09:56:00
2:56 AM,39.9,37.0,89,29.80,6.0,SSE,10.4,-,0.03,Rain,Light Rain,150,2012-12-14 10:56:00
3:56 AM,39.9,37.0,89,29.79,7.0,South,5.8,-,0.00,,Overcast,170,2012-12-14 11:56:00
4:34 AM,42.8,37.4,81,29.78,10.0,WNW,17.3,-,N/A,,Overcast,300,2012-12-14 12:34:00
4:56 AM,42.1,39.0,89,29.80,7.0,NW,12.7,-,N/A,,Overcast,310,2012-12-14 12:56:00
5:08 AM,41.0,37.4,87,29.78,4.0,NNW,10.4,-,0.00,Rain,Light Rain,330,2012-12-14 13:08:00
5:56 AM,39.9,37.0,89,29.81,7.0,NNE,4.6,-,0.00,,Overcast,20,2012-12-14 13:56:00
6:56 AM,39.9,36.0,86,29.83,8.0,NNE,3.5,-,N/A,,Overcast,20,2012-12-14 14:56:00
7:56 AM,39.9,36.0,86,29.85,8.0,NE,6.9,-,N/A,,Overcast,40,2012-12-14 15:56:00
8:56 AM,39.9,36.0,86,29.87,9.0,North,4.6,-,N/A,,Overcast,10,2012-12-14 16:56:00
9:30 AM,39.2,35.6,87,29.87,9.0,Calm,Calm,-,N/A,,Overcast,0,2012-12-14 17:30:00
9:56 AM,41.0,37.0,86,29.89,10.0,Calm,Calm,-,N/A,,Overcast,0,2012-12-14 17:56:00
10:28 AM,42.8,37.4,81,29.89,10.0,Calm,Calm,-,N/A,,Overcast,0,2012-12-14 18:28:00
10:56 AM,42.1,36.0,79,29.90,10.0,NW,5.8,-,N/A,,Overcast,310,2012-12-14 18:56:00
11:26 AM,42.8,35.6,76,29.89,10.0,NW,6.9,-,0.00,Rain,Light Rain,310,2012-12-14 19:26:00
11:56 AM,42.1,36.0,79,29.91,10.0,NW,13.8,-,0.00,,Mostly Cloudy,310,2012-12-14 19:56:00
12:56 PM,42.1,35.1,76,29.91,10.0,NW,12.7,-,N/A,,Mostly Cloudy,320,2012-12-14 20:56:00
1:56 PM,41.0,35.1,79,29.92,10.0,NNW,10.4,-,N/A,,Scattered Clouds,330,2012-12-14 21:56:00
2:56 PM,39.9,35.1,83,29.93,10.0,NNW,4.6,-,N/A,,Mostly Cloudy,340,2012-12-14 22:56:00
3:56 PM,41.0,34.0,76,29.95,10.0,NNW,6.9,-,N/A,,Mostly Cloudy,330,2012-12-14 23:56:00
4:56 PM,37.0,33.1,86,29.95,10.0,East,4.6,-,N/A,,Mostly Cloudy,100,2012-12-15 00:56:00
5:56 PM,34.0,30.0,85,29.96,10.0,ESE,4.6,-,N/A,,Mostly Cloudy,110,2012-12-15 01:56:00
6:56 PM,33.1,30.0,89,29.95,10.0,ESE,4.6,-,N/A,,Scattered Clouds,110,2012-12-15 02:56:00
7:56 PM,34.0,30.9,89,29.95,10.0,ESE,5.8,-,N/A,,Mostly Cloudy,120,2012-12-15 03:56:00
8:56 PM,34.0,30.9,89,29.95,10.0,East,5.8,-,N/A,,Mostly Cloudy,90,2012-12-15 04:56:00
9:56 PM,34.0,30.9,89,29.94,10.0,ESE,9.2,-,N/A,,Overcast,110,2012-12-15 05:56:00
10:56 PM,36.0,33.1,89,29.93,10.0,ESE,9.2,-,N/A,,Mostly Cloudy,120,2012-12-15 06:56:00
11:56 PM,36.0,32.0,86,29.91,10.0,East,12.7,-,N/A,,Scattered Clouds,100,2012-12-15 07:56:00